Location: West Cummington
(42.4920°N, 72.9680°W)
Time: 15:22:02
(UTC-04:00)

Daily predictions for brighter satellites

Satellite Brightness Start Highest point End
(mag) Time Altitude Azimuth Time Altitude Azimuth Time Altitude Azimuth
NOSS 2-3 (E) 3.8 20:57:48 10° SSW 21:02:19 86° SE 21:07:38 10° NE
Cosmos 1470 3.1 21:00:11 10° NNW 21:04:04 68° W 21:07:56 10° S
NOAA 11 4.3 20:58:42 10° SSE 21:04:08 85° WSW 21:09:35 10° NNW
Cosmos 1844 Rocket 3.8 21:02:42 10° SSE 21:07:05 24° ESE 21:11:29 10° NE
ATLAS 2AS CENTAUR R/B 3.6 21:05:40 10° S 21:12:36 37° ESE 21:19:48 10° NE
Meteor 2-5 Rocket 4.0 21:12:01 10° S 21:17:50 61° E 21:23:40 10° NNE
SPOT 5 4.3 21:20:17 10° ESE 21:24:29 27° ENE 21:28:51 10° N
NOSS 8 (A) 4.4 21:21:33 10° SSW 21:24:46 47° ESE 21:27:50 10° NE
Cosmos 1607 4.5 21:18:54 10° NW 21:25:09 58° WSW 21:31:15 10° SSE
Lacrosse 5 1.9 21:25:40 10° SSW 21:30:36 56° SE 21:35:34 10° NE
ERS-1 Rocket 3.5 21:26:48 10° SE 21:31:29 46° ENE 21:36:18 10° N
Cosmos 1238 Rocket 2.6 21:29:19 10° SSE 21:32:07 40° E 21:34:57 10° NNE
Iridium 4 Rocket 3.7 21:28:08 10° S 21:33:51 81° E 21:39:11 10° N
Cosmos 1908 4.4 21:34:07 10° NNE 21:37:30 28° ENE 21:40:02 15° SE
Cosmos 2263 Rocket 3.5 21:32:11 10° SW 21:37:36 44° WNW 21:43:01 10° NNE
Cosmos-2242 3.5 21:34:12 10° N 21:38:28 47° ENE 21:42:03 14° SSE
Cosmos 1048 Rocket 4.0 21:33:41 10° SSW 21:38:58 79° ESE 21:44:21 10° NNE
OE (NEXTSAT) 4.4 21:38:12 10° WNW 21:41:45 79° NNE 21:44:47 13° ESE
USA 215 4.3 21:38:07 10° SSE 21:44:05 37° SW 21:50:06 10° WNW
GENESIS II 4.1 21:44:05 10° SSW 21:47:57 74° ESE 21:51:53 10° NE
Cosmos 2084 3.6 21:44:16 10° NNW 21:48:04 53° NE 21:50:47 17° ESE
SL-8 R/B 4.0 21:46:30 10° SSW 21:51:03 43° SE 21:55:38 10° ENE
OAO 3 Rocket 4.0 21:47:03 10° WSW 21:51:29 33° S 21:54:44 16° ESE
CZ-2C R/B 4.4 21:49:54 10° ENE 21:52:37 14° E 21:54:18 12° ESE
Cosmos 1953 Rocket 3.6 21:50:45 10° S 21:55:05 84° W 21:59:30 10° N
Resurs 01 Rocket 4.0 21:52:14 10° SW 21:55:26 19° W 21:58:40 10° NW
In-Cosmos 22 4.2 21:50:18 10° S 21:55:49 85° W 22:01:31 10° N
Cosmos 1315 Rocket 3.3 21:53:32 10° SSW 21:57:32 62° WNW 22:01:37 10° N
Cosmos 1340 3.8 21:55:57 10° NNE 21:59:17 29° ENE 22:01:04 20° ESE
Cosmos 1758 Rocket 4.2 21:56:22 10° SSW 22:00:46 59° W 22:05:10 10° N
Helios 1A 3.3 21:59:46 20° SE 22:02:26 51° ENE 22:06:31 10° N
SL-08 RB Rocket 4.2 22:03:46 12° S 22:08:02 58° W 22:12:39 10° NNW
Cosmos 1300 4.3 22:07:39 10° NNE 22:10:41 22° ENE 22:12:00 18° ESE
Cosmos 1674 2.6 22:08:26 17° S 22:11:15 76° E 22:15:05 10° NNE
Landsat 7 4.0 22:11:37 22° SE 22:14:33 58° ENE 22:19:15 10° N
Timation 1 Rocket 4.3 22:09:39 10° SSW 22:15:35 74° ESE 22:21:33 10° NNE
Helios 1B rocket 2.9 22:12:17 10° NNE 22:16:12 42° E 22:18:01 26° SSE
SPOT 1/Viking Rocket 3.5 22:12:48 21° SSE 22:16:18 76° ENE 22:21:27 10° N
Cosmos 1437 3.6 22:13:42 10° NNW 22:16:45 44° W 22:18:41 19° SSW
H-2A R/B 2.8 22:11:51 11° S 22:16:46 51° W 22:22:01 10° NNW
Cosmos 1110 Rocket 3.9 22:14:11 10° NNW 22:19:24 82° ENE 22:22:33 24° SSE
ATLAS 3B CENTAUR R/B 4.4 22:08:33 10° SW 22:19:32 22° S 22:22:18 19° SSE
APEX 4.2 22:19:35 10° N 22:22:16 27° ENE 22:23:24 22° E
Cosmos 1745 Rocket 4.1 22:17:17 10° N 22:23:36 63° E 22:27:32 23° SSE
Cosmos 2278 Rocket 2.9 22:23:34 24° SSE 22:25:57 34° ESE 22:31:00 10° NE
Cosmos 2221 3.6 22:23:55 10° NNE 22:27:46 30° ENE 22:29:15 24° ESE
SL-08 R/B 4.4 22:25:32 10° N 22:31:42 90° ENE 22:35:54 22° S
DMSP B5D2-2 4.3 22:27:22 10° N 22:32:36 71° WNW 22:37:47 10° SSW
Terra 2.0 22:31:35 28° SE 22:33:55 59° ENE 22:38:37 10° N
COSMOS 2406 3.2 22:28:27 10° NNW 22:34:16 83° ENE 22:37:28 28° SSE
Cosmos 921 Rocket 3.4 22:30:17 10° NNW 22:34:43 62° WSW 22:37:08 26° S
Cosmos 1331 Rocket 4.0 22:29:34 10° NNW 22:34:48 83° WSW 22:37:39 28° SSE
Cosmos 1726 2.1 22:31:35 10° N 22:35:21 79° W 22:36:55 33° S
USA 238 DEB 3.8 22:28:24 10° NW 22:35:35 90° NE 22:40:07 25° SE
USA 238 3.8 22:28:31 10° NW 22:35:42 89° NE 22:40:13 25° SE
SL-14 R/B 3.6 22:35:37 36° SE 22:36:38 46° E 22:40:24 10° NNE
Cosmos 1346 Rocket 4.1 22:33:20 10° NNW 22:36:59 35° W 22:39:41 16° SSW
Meteor 2-10 4.1 22:31:55 10° N 22:37:20 89° ENE 22:40:34 26° S
ATLAS 3B R/B 2.7 22:32:28 10° NNW 22:39:08 74° NE 22:43:03 26° SE
Spot 1 4.1 22:38:44 34° SSE 22:40:33 70° ENE 22:45:05 10° N
Cosmos 494 Rocket 4.3 22:38:38 10° SSW 22:43:51 69° WNW 22:49:07 10° NNE
Cosmos 1844 4.0 22:41:25 10° SSW 22:47:05 71° WNW 22:52:52 10° NNE
NOSS 3-2 (A) 4.1 22:41:40 10° NNW 22:49:14 75° NE 22:54:22 26° SE
Meteor 2-13 Rocket 4.4 22:43:38 10° N 22:49:45 88° E 22:53:08 28° S
S3M 4.1 22:45:02 16° SSW 22:50:15 77° W 22:56:41 10° N
Cosmos 1844 Rocket 3.5 22:45:06 10° SW 22:50:36 51° WNW 22:56:07 10° NNE
Nimbus 7 Rocket 4.5 22:44:55 10° NNE 22:50:53 63° ESE 22:54:09 28° S
CARTOSAT-1 3.6 22:53:06 35° S 22:54:50 72° WSW 22:59:10 10° NNW
CZ-2C R/B 3.3 22:53:48 31° SSE 22:56:44 83° ENE 23:02:33 10° NNW
Cosmos 1709 Rocket 4.2 22:51:06 10° N 22:57:14 57° ENE 23:00:00 32° SE
Cosmos 1302 Rocket 4.0 22:55:58 10° NNW 23:01:18 87° WSW 23:03:25 37° SSE
SPOT 5 4.0 22:59:19 20° SSW 23:02:19 39° W 23:07:13 10° NNW
Cosmos 2251 Rocket 3.5 22:59:38 24° SSW 23:02:57 89° E 23:08:18 10° NNE
ATLAS 2AS CENTAUR R/B 3.7 22:55:35 10° SW 23:03:20 59° NW 23:11:22 10° NNE
Cosmos 1461 3.2 23:03:08 42° S 23:04:22 57° ESE 23:09:03 10° NE
YAOGAN 11 4.1 23:03:10 42° SSE 23:04:41 88° ENE 23:09:17 10° NNW
Cosmos 220 Rocket 4.2 23:04:00 26° SW 23:06:18 66° WNW 23:10:31 10° NNE
RESURS DK-1 4.1 23:12:25 19° E 23:12:25 19° E 23:14:29 10° NE
NOSS 3-2 (C) 4.1 23:05:29 10° NW 23:13:03 78° NE 23:17:42 29° SE
ATLAS 5 CENTAUR R/B 2.2 23:13:17 39° ESE 23:13:17 39° ESE 23:17:36 10° NE
Cosmos 2082 Rocket 3.1 23:07:52 10° NNW 23:13:16 40° ENE 23:15:51 26° ESE
IGS 5A 4.3 23:12:05 30° SW 23:13:29 41° W 23:17:26 10° NNW
Lacrosse 5 3.7 23:09:13 10° W 23:13:48 33° NNW 23:18:23 10° NE
Cosmos 1766 Rocket 4.3 23:17:39 35° E 23:17:59 35° E 23:22:03 10° NNE
Cosmos 1833 Rocket 3.2 23:15:10 10° NNW 23:20:38 50° ENE 23:22:51 33° ESE
Cosmos 1992 Rocket 4.5 23:15:59 10° N 23:21:03 49° ENE 23:22:44 36° ESE
Cosmos 1076 Rocket 3.3 23:21:28 59° S 23:22:14 80° E 23:26:30 10° N
Meteor 1-29 4.4 23:19:58 10° N 23:23:04 33° WNW 23:24:13 26° WSW
Cosmos 2315 Rocket 4.0 23:24:28 35° S 23:27:23 88° E 23:33:47 10° N
SL-08 ROCKET BODY 4.4 23:26:48 10° N 23:33:02 87° E 23:35:21 41° S
CZ-2C R/B 2.7 23:28:03 10° N 23:33:32 76° WNW 23:35:50 35° SSW
SL-8 R/B 4.2 23:28:45 10° W 23:33:32 59° NNW 23:38:20 10° ENE
H-2A R/B 4.0 23:33:27 16° E 23:34:23 17° ENE 23:37:04 10° NNE
Aureole 3 Rocket 4.2 23:30:26 31° S 23:34:40 88° E 23:40:40 10° N
Cosmos 1626 2.3 23:35:20 59° WSW 23:35:40 62° W 23:39:23 10° N
Meteor 2-19 Rocket 4.4 23:31:15 10° N 23:37:27 83° E 23:39:37 43° SSE
NOSS 2-2 (E) 3.2 23:39:41 76° SSW 23:39:58 85° ESE 23:44:24 10° NE
NOSS 3-4 (A) 3.5 23:35:38 19° SW 23:40:13 83° NW 23:46:41 10° NE
NOSS 3-4 (C) 3.4 23:35:49 20° SW 23:40:18 84° NW 23:46:47 10° NE
Mayak -0.1 23:37:01 10° NNE 23:40:22 30° E 23:40:22 30° E
Cosmos 1328 4.0 23:41:24 55° WSW 23:41:55 61° W 23:45:50 10° N
Okean 3 Rocket 3.7 23:42:55 53° SW 23:43:47 69° W 23:48:10 10° N
Cosmos 2184 Rocket 4.3 23:39:45 10° N 23:45:59 55° ENE 23:48:03 39° SE
Cosmos 1455 2.3 23:42:31 10° N 23:46:06 62° ENE 23:46:06 62° ENE
Cosmos 1300 4.4 23:43:11 10° NW 23:46:18 24° W 23:46:59 23° WSW
Meteor 1-11 4.2 23:45:43 47° S 23:47:28 81° E 23:53:17 10° NNE
Cosmos 407 Rocket 4.3 23:48:04 33° ESE 23:48:10 33° E 23:52:45 10° NE
CENTAUR R/B 3.3 23:41:24 10° NNW 23:49:19 69° NE 23:54:13 28° SE
ADEOS Rocket 3.5 23:46:19 10° NNE 23:52:01 46° E 23:53:30 40° SE
Cosmos 2151 3.7 23:52:47 39° E 23:52:47 39° E 23:56:36 10° NNE
Cosmos 2228 Rocket 4.1 23:48:52 10° N 23:52:55 33° ENE 23:53:23 32° E
